カタログに戻る

STARLINK-35635

運用中通信VLEO
NORAD 66161·PAYLOAD·🇺🇸 United States

打ち上げ Oct 25, 2025 から Cape Canaveral Space Force Station

Loading…

次のパス (今後24時間)

TLE

最新Source: CelesTrak SupGP

元期: Sep 15, 2026, 04:13 UTC

1 66161C 25240R   26258.17618056 -.00031966  00000+0 -94454-3 0  2583
2 66161  53.1570 260.6876 0001323  80.8992  64.3290 15.34403287    15

AllMySatでSTARLINK-35635をリアルタイム追跡

Download on the App Store